DateTimeUTC,F1_A11,F1_S11,BsB_S11,BsG_S11,BsR_S11,BbsB_S11,BbsG_S11,BbsR_S11,BaB_A11,BaG_A11,BaR_A11,T_S11,U_S11,P_S11,T1_A11
2020-02-11T00:00:00Z,00000380,21000600,,,,,,,,,,23.8,00.0,0616.6,30.9
2020-02-11T00:01:00Z,00000380,21000600,,,,,,,,,,23.9,00.0,0616.6,30.9
2020-02-11T00:02:00Z,00000380,21000600,,,,,,,,,,23.9,00.0,0616.6,30.9
2020-02-11T00:03:00Z,00000380,61000600,,,,,,,,,,23.9,00.0,0616.6,30.9
2020-02-11T00:04:00Z,00000380,41000600,0000.38,-000.24,0000.81,0000.47,0000.30,0000.67,0000.13,-000.12,0000.18,23.7,00.0,0617.4,30.9
2020-02-11T00:05:00Z,00000380,01000600,0000.36,-000.51,0000.16,0000.06,-000.18,0000.47,-000.02,0000.10,-000.07,23.6,00.0,0617.4,30.9
2020-02-11T00:06:00Z,00000380,01000600,-000.11,-000.21,-000.21,0000.21,-000.25,0000.09,0000.08,0000.02,0000.05,23.6,00.0,0617.4,30.9
2020-02-11T00:07:00Z,00000380,01000600,0000.30,-000.08,0000.13,0000.45,0000.22,0000.25,-000.07,-000.07,-000.02,23.6,00.0,0617.4,30.9
2020-02-11T00:08:00Z,00000380,01000600,0000.37,0000.06,0000.35,0000.02,0000.08,0000.30,0000.03,0000.08,-000.12,23.6,00.0,0617.5,30.9
2020-02-11T00:09:00Z,00000380,01000600,-000.26,-000.15,0000.72,0000.92,-000.05,0000.36,-000.05,0000.07,0000.15,23.6,00.0,0617.5,30.9
2020-02-11T00:10:00Z,00000380,01000600,-000.36,-000.52,0000.13,-000.44,0000.32,0000.19,-000.11,-000.01,-000.13,23.6,00.0,0617.5,30.9
2020-02-11T00:11:00Z,00000380,01000600,0000.49,0000.20,0000.39,-000.98,0000.15,0000.41,0000.08,-000.02,0000.01,23.6,00.0,0617.5,30.9
2020-02-11T00:12:00Z,00000380,01000600,0001.15,-000.24,0000.15,0000.89,-000.21,0000.39,0000.08,0000.11,0000.07,23.6,00.0,0617.5,30.9
2020-02-11T00:13:00Z,00000380,01000600,-000.11,0000.42,-000.18,-000.69,-000.28,-000.04,0000.01,-000.02,0000.10,23.6,00.0,0617.5,30.9
2020-02-11T00:14:00Z,00000380,01000600,0000.05,0000.59,-000.25,-000.14,0000.05,-000.03,0000.05,-000.10,-000.14,23.6,00.0,0617.5,30.9
2020-02-11T00:15:00Z,00000380,01000600,0000.72,-000.11,0000.04,-001.05,0000.16,0000.11,-000.03,0000.12,-000.00,23.5,00.0,0617.4,30.9
2020-02-11T00:16:00Z,00000380,01000600,-001.11,-000.19,-000.01,-000.17,0000.02,0000.19,-000.03,-000.09,0000.12,23.5,00.0,0617.4,30.9
2020-02-11T00:17:00Z,00000380,01000600,-000.24,-000.55,0000.50,-000.39,0000.32,0000.28,0000.01,0000.05,-000.15,23.5,00.0,0617.4,30.9
2020-02-11T00:18:00Z,00000380,01000600,0000.77,-000.08,0000.60,-000.16,-000.27,0000.62,0000.18,0000.13,0000.20,23.5,00.0,0617.4,30.9
2020-02-11T00:19:00Z,00000380,01000600,0000.06,0000.26,0000.25,0000.92,0000.07,0000.16,-000.14,0000.02,-000.17,23.5,00.0,0617.4,30.9
2020-02-11T00:20:00Z,00000380,01000600,0000.12,-000.43,0000.35,0000.08,0000.28,0000.27,0000.25,0000.09,0000.04,23.5,00.0,0617.4,30.9
2020-02-11T00:21:00Z,00000380,01000600,-000.55,-000.27,0000.15,-000.22,-000.08,0000.55,-000.07,-000.12,0000.09,23.5,00.0,0617.4,30.9
2020-02-11T00:22:00Z,00000380,01000600,-000.22,-000.11,0000.07,0000.21,-000.08,0000.45,-000.04,-000.18,-000.00,23.5,00.0,0617.4,30.9
2020-02-11T00:23:00Z,00000380,01000600,0000.70,0000.08,0000.45,-000.61,-000.08,0000.13,-000.02,0000.07,-000.05,23.5,00.0,0617.4,30.9
2020-02-11T00:24:00Z,00000380,01000600,-000.07,-000.49,-000.25,-000.31,-000.35,0000.19,-000.15,0000.03,0000.14,23.5,00.0,0617.4,30.9
2020-02-11T00:25:00Z,00000380,01000600,0000.21,-000.83,0000.08,-000.29,-000.02,0000.37,0000.15,0000.03,-000.03,23.5,00.0,0617.5,30.9
2020-02-11T00:26:00Z,00000388,01000608,-000.16,-000.47,0000.34,0000.21,-000.18,-000.29,-000.18,-000.11,-000.19,23.5,00.0,0617.5,30.9
2020-02-11T00:27:00Z,00000388,01000608,-000.12,-000.26,0000.36,0000.10,-000.20,0000.65,-000.16,-000.10,0000.01,23.5,00.0,0617.5,30.9
2020-02-11T00:28:00Z,00000388,01000608,-001.99,-000.10,0000.42,0000.51,0000.07,0000.20,0000.05,-000.03,-000.14,23.5,00.0,0617.5,30.9
2020-02-11T00:29:00Z,00000388,01000608,-000.15,-000.13,0000.27,0000.19,-000.07,0000.09,-000.08,0000.12,0000.10,23.5,00.0,0617.5,30.9
2020-02-11T00:30:00Z,00000388,01000608,0000.18,0000.10,-000.04,-000.51,0000.06,-000.17,0000.18,-000.02,0000.04,23.5,00.0,0617.5,30.9
2020-02-11T00:31:00Z,00000388,01000608,-000.16,0000.29,-000.38,-000.31,0000.01,0000.18,-000.18,0000.02,-000.09,23.5,00.0,0617.5,30.9
2020-02-11T00:32:00Z,00000388,01000608,0000.14,-000.24,-000.02,0000.31,0000.15,0000.14,0000.10,0000.07,0000.06,23.5,00.0,0617.5,30.9
2020-02-11T00:33:00Z,00000388,01000608,0000.52,0000.17,0000.19,-000.71,0000.02,0000.12,0000.07,0000.02,-000.02,23.5,00.0,0617.4,30.9
2020-02-11T00:34:00Z,00000388,01000608,0000.46,-000.13,-000.06,-000.24,-000.22,0000.36,0000.05,-000.07,0000.05,23.5,00.0,0617.4,30.9
2020-02-11T00:35:00Z,00000388,01000608,0000.70,-000.56,-000.13,-000.24,0000.07,-000.23,-000.00,-000.01,0000.08,23.5,00.0,0617.4,30.9
2020-02-11T00:36:00Z,00000388,01000608,-000.34,0000.13,0000.36,0001.03,0000.31,0000.13,0000.02,0000.21,0000.05,23.5,00.0,0617.4,30.9
2020-02-11T00:37:00Z,00000388,01000608,-000.73,-000.13,-000.44,0000.11,-000.17,-000.08,0000.10,-000.00,0000.14,23.5,00.0,0617.4,30.9
2020-02-11T00:38:00Z,00000388,01000608,-001.53,-000.62,0000.31,-000.43,-000.23,0000.24,-000.11,-000.03,-000.09,23.5,00.0,0617.4,30.9
2020-02-11T00:39:00Z,00000388,01000608,-001.28,0001.23,0000.54,-000.35,0000.10,-000.02,0000.06,0000.06,0000.06,23.5,00.0,0617.4,30.9
2020-02-11T00:40:00Z,00000388,01000608,-000.01,0000.06,0000.15,0000.07,0000.10,0000.61,0000.19,-000.02,-000.02,23.5,00.0,0617.4,30.9
2020-02-11T00:41:00Z,00000388,01000608,0000.43,-000.38,-000.20,0000.24,-000.06,0000.12,0000.04,-000.04,0000.00,23.5,00.0,0617.4,30.9
2020-02-11T00:42:00Z,00000388,01000608,0000.24,0000.53,-000.07,-000.77,-000.12,0000.35,-000.09,0000.21,0000.04,23.5,00.0,0617.4,30.9
2020-02-11T00:43:00Z,00000388,01000608,-000.34,0000.63,-000.32,0000.09,-000.10,0000.25,0000.13,-000.07,0000.04,23.5,00.0,0617.5,30.9
2020-02-11T00:44:00Z,00000388,01000608,0000.86,-000.14,0000.16,-000.04,0000.23,0000.22,0000.17,0000.10,0000.10,23.6,00.0,0617.5,30.9
2020-02-11T00:45:00Z,00000388,01000608,0000.65,-000.15,-000.31,0000.04,0000.10,0000.10,-000.10,0000.09,-000.08,23.6,00.0,0617.5,31.0
2020-02-11T00:46:00Z,00000388,01000608,-000.10,0000.68,-000.18,-000.33,0000.42,0000.05,0000.00,-000.16,0000.04,23.6,00.0,0617.5,31.0
2020-02-11T00:47:00Z,00000388,01000608,-000.59,0000.13,0000.24,-000.07,0000.32,0000.56,0000.33,0000.26,-000.04,23.6,00.0,0617.5,31.0
2020-02-11T00:48:00Z,00000388,01000608,0000.64,0000.08,0000.60,0000.58,0000.09,-000.32,0000.05,0000.16,0000.18,23.6,00.0,0617.5,31.0
2020-02-11T00:49:00Z,00000388,01000608,-001.12,-000.15,0000.38,-000.21,-000.06,0000.17,-000.54,-000.50,-000.27,23.6,00.0,0617.8,31.0
2020-02-11T00:50:00Z,00000388,01000608,0000.38,-000.10,-000.10,0000.31,0000.13,0000.32,-000.04,-000.19,-000.14,23.6,00.0,0617.7,31.0
2020-02-11T00:51:00Z,00000388,01000608,-001.70,0000.46,0000.75,-000.31,-000.09,0000.72,-000.19,-000.03,0000.03,23.6,00.0,0617.7,31.0
2020-02-11T00:52:00Z,00000388,01000608,0000.76,-000.38,0000.15,-000.07,-000.08,0000.07,0000.06,0000.18,0000.00,23.6,00.0,0617.7,31.0
2020-02-11T00:53:00Z,00000388,01000608,0000.42,-000.06,-000.13,0000.08,-000.15,-000.00,-000.01,-000.05,-000.04,23.6,00.0,0617.7,31.0
2020-02-11T00:54:00Z,00000388,01000608,0000.24,0000.11,0000.26,-000.14,-000.39,-000.40,-000.00,0000.09,0000.02,23.6,00.0,0617.7,31.0
2020-02-11T00:55:00Z,00000388,01000608,-001.36,-000.54,0000.35,-000.16,-000.02,0000.43,0000.20,-000.04,0000.02,23.6,00.0,0617.7,31.0
2020-02-11T00:56:00Z,00000388,01000608,-000.05,-000.25,0000.13,0000.23,0000.11,-000.11,-000.13,-000.05,0000.10,23.6,00.0,0617.8,31.0
2020-02-11T00:57:00Z,00000388,41000608,,,,,,,,,,23.7,00.0,0617.9,31.0
2020-02-11T00:58:00Z,00000388,61000608,,,,,,,,,,23.7,00.0,0616.9,31.0
2020-02-11T00:59:00Z,00000388,21000608,,,,,,,,,,23.8,00.0,0616.8,31.0
2020-02-11T01:00:00Z,00000388,21000608,,,,,,,,,,23.9,00.0,0616.8,31.0
2020-02-11T01:01:00Z,00000388,21000608,,,,,,,,,,23.9,00.0,0616.8,31.0
2020-02-11T01:02:00Z,00000388,21000608,,,,,,,,,,23.9,00.0,0616.8,31.0
2020-02-11T01:03:00Z,00000388,61000608,,,,,,,,,,23.9,00.0,0616.8,31.0
2020-02-11T01:04:00Z,00000388,41000608,0000.80,-000.56,-000.08,0001.25,-000.11,0000.45,-000.02,0000.20,0000.25,23.8,00.0,0617.5,31.0
2020-02-11T01:05:00Z,00000388,01000608,0000.08,-000.39,0000.24,-000.23,-000.30,0000.31,0000.07,0000.15,-000.00,23.7,00.0,0617.5,31.0
2020-02-11T01:06:00Z,00000388,01000608,-001.18,-000.14,0000.06,0000.70,0000.06,-000.03,0000.08,-000.05,-000.02,23.7,00.0,0617.5,31.0
2020-02-11T01:07:00Z,00000388,01000608,0000.86,-000.39,0000.24,0000.47,-000.27,-000.15,0000.27,0000.04,0000.06,23.7,00.0,0617.4,30.9
2020-02-11T01:08:00Z,00000388,01000608,-000.40,0000.08,-000.03,0000.26,-000.06,0000.27,-000.16,0000.08,0000.08,23.7,00.0,0617.4,30.9
2020-02-11T01:09:00Z,00000388,01000608,0000.25,0000.35,-000.16,0000.66,0000.10,0000.25,0000.11,-000.02,0000.14,23.7,00.0,0617.4,31.0
2020-02-11T01:10:00Z,00000388,01000608,-001.00,-000.23,0000.43,-000.51,-000.29,0000.27,0000.08,0000.18,-000.02,23.7,00.0,0617.4,31.0
2020-02-11T01:11:00Z,00000388,01000608,-000.55,-000.32,0000.17,0000.63,0000.00,0000.33,-000.03,-000.01,-000.08,23.7,00.0,0617.3,31.0
2020-02-11T01:12:00Z,00000388,01000608,-000.42,0000.06,-000.11,-000.22,0000.16,0000.31,0000.26,0000.19,0000.12,23.7,00.0,0617.3,31.0
2020-02-11T01:13:00Z,00000388,01000608,0000.12,-000.25,-000.14,0001.14,0000.05,0000.46,0000.00,-000.07,0000.06,23.7,00.0,0617.3,31.0
2020-02-11T01:14:00Z,00000388,01000608,-000.54,-000.27,-000.44,0001.04,-000.24,0000.25,0000.12,0000.13,-000.03,23.7,00.0,0617.3,30.9
2020-02-11T01:15:00Z,00000388,01000608,-000.58,-000.08,-000.51,0000.45,0000.15,0000.20,0000.08,0000.02,0000.18,23.7,00.0,0617.3,31.0
2020-02-11T01:16:00Z,00000388,01000608,0000.59,0000.10,0000.56,-000.03,-000.02,0000.15,-000.05,0000.13,-000.02,23.7,00.0,0617.3,31.0
2020-02-11T01:17:00Z,00000388,01000608,-000.38,-000.47,0000.13,-000.54,-000.07,-000.06,0000.08,0000.04,-000.05,23.7,00.0,0617.3,31.0
2020-02-11T01:18:00Z,00000388,01000608,-000.31,-000.11,0000.05,-000.70,-000.13,0000.02,0000.11,-000.11,0000.08,23.7,00.0,0617.2,30.9
2020-02-11T01:19:00Z,00000388,01000608,-000.74,0000.22,0000.25,0000.08,0000.02,0000.15,0000.01,-000.03,0000.04,23.7,00.0,0617.2,30.9
2020-02-11T01:20:00Z,00000388,01000608,-000.38,-000.08,-000.16,0000.00,0000.15,0000.25,-000.00,0000.03,0000.06,23.7,00.0,0617.2,30.9
2020-02-11T01:21:00Z,00000388,01000608,-000.54,0000.13,-000.01,-000.50,0000.01,0000.33,-000.01,0000.08,0000.01,23.7,00.0,0617.2,30.9
2020-02-11T01:22:00Z,00000388,01000608,-000.66,0000.06,0000.56,0000.27,0000.12,0000.41,0000.09,0000.12,-000.02,23.7,00.0,0617.2,30.9
2020-02-11T01:23:00Z,00000388,01000608,0000.50,0000.27,-000.05,-000.06,-000.22,0000.59,0000.07,0000.04,-000.03,23.7,00.0,0617.2,30.9
2020-02-11T01:24:00Z,00000388,01000608,-000.59,0000.67,-000.31,0000.45,-000.24,0000.01,-000.09,-000.08,0000.05,23.7,00.0,0617.2,30.9
2020-02-11T01:25:00Z,00000388,01000608,-000.18,0000.22,-000.37,0000.23,0000.17,-000.05,0000.17,0000.07,0000.01,23.7,00.0,0617.2,30.9
2020-02-11T01:26:00Z,00000388,01000608,-000.02,0000.10,-000.25,0000.13,-000.03,0000.00,0000.12,0000.06,-000.00,23.7,00.0,0617.2,30.9
2020-02-11T01:27:00Z,00000388,01000608,0000.10,0000.09,0000.27,0000.28,0000.13,0000.30,-000.09,0000.01,0000.16,23.7,00.0,0617.2,30.9
2020-02-11T01:28:00Z,00000388,01000608,0000.57,-000.44,0000.23,0000.96,0000.21,0000.82,-000.12,-000.02,-000.21,23.7,00.0,0617.2,30.9
2020-02-11T01:29:00Z,00000388,01000608,0000.82,0000.00,0000.07,0000.33,-000.10,-000.10,0001.89,0001.47,0001.24,23.7,00.0,0617.2,30.9
2020-02-11T01:30:00Z,00000388,01000608,0002.77,0001.82,0001.00,0001.83,0000.31,0000.37,0013.91,0012.55,0009.37,23.6,00.0,0617.2,30.9
2020-02-11T01:31:00Z,00000388,01000608,0003.42,0002.68,0001.41,0001.19,0000.83,0000.31,0019.80,0017.92,0013.32,23.7,00.0,0617.2,30.9
2020-02-11T01:32:00Z,00000388,01000608,0003.15,0001.84,0000.58,0000.68,0000.67,0000.41,0012.56,0011.33,0008.65,23.6,00.0,0617.2,30.9
2020-02-11T01:33:00Z,00000388,01000608,0002.04,0001.52,0000.36,0000.60,0000.14,0000.62,0011.16,0010.03,0007.46,23.6,00.0,0617.2,30.9
2020-02-11T01:34:00Z,00000388,01000608,-000.21,0000.38,-000.10,0000.23,0000.19,-000.10,0004.67,0004.29,0003.18,23.6,00.0,0617.2,30.9
2020-02-11T01:35:00Z,00000388,01000608,-000.48,-000.07,-000.19,0000.03,-000.26,0000.43,0000.49,0000.31,0000.42,23.6,00.0,0617.2,30.9
2020-02-11T01:36:00Z,00000388,01000608,0000.22,-000.39,-000.60,0000.05,-000.49,0000.36,0000.17,0000.10,0000.08,23.6,00.0,0617.2,30.9
2020-02-11T01:37:00Z,00000388,01000608,-000.01,0000.14,-000.73,-000.12,-000.32,0000.18,-000.00,0000.15,-000.07,23.6,00.0,0617.2,30.9
2020-02-11T01:38:00Z,00000388,01000608,-000.10,0000.67,0000.08,0000.02,0000.01,0000.30,0000.03,-000.12,0000.07,23.6,00.0,0617.2,30.9
2020-02-11T01:39:00Z,00000388,01000608,0000.41,0000.42,-000.05,-000.23,0000.13,0000.15,-000.04,-000.07,0000.07,23.6,00.0,0617.2,30.9
2020-02-11T01:40:00Z,00000388,01000608,-000.16,0000.04,-000.55,-000.48,-000.11,0000.16,0000.09,0000.17,-000.05,23.6,00.0,0617.2,30.9
2020-02-11T01:41:00Z,00000388,01000608,-000.55,-000.10,0000.11,0000.76,-000.19,0000.18,0000.10,0000.02,0000.07,23.6,00.0,0617.2,30.9
2020-02-11T01:42:00Z,00000388,01000608,0000.42,-000.23,0000.19,0000.47,-000.07,-000.07,-000.03,-000.04,-000.08,23.6,00.0,0617.2,30.9
2020-02-11T01:43:00Z,00000388,01000608,-000.74,-000.32,-000.38,0000.27,0000.24,0000.26,0000.05,0000.08,0000.12,23.6,00.0,0617.2,30.9
2020-02-11T01:44:00Z,00000388,01000608,-000.32,-000.11,-000.25,0000.55,-000.11,0000.19,0000.18,0000.06,-000.07,23.6,00.0,0617.2,30.9
2020-02-11T01:45:00Z,00000388,01000608,-000.10,-000.40,0000.36,0000.65,-000.02,0000.42,-000.08,0000.07,0000.04,23.6,00.0,0617.2,30.9
2020-02-11T01:46:00Z,00000388,01000608,-000.11,-000.10,-000.29,0000.09,-000.35,0000.09,-000.01,0000.04,0000.25,23.6,00.0,0617.3,30.9
2020-02-11T01:47:00Z,00000388,01000608,0000.31,0000.41,0000.16,-000.08,0000.18,0000.21,0000.13,0000.01,-000.05,23.6,00.0,0617.3,30.9
2020-02-11T01:48:00Z,00000388,01000608,-001.10,-000.26,0000.36,-000.22,-000.36,0000.26,-000.02,-000.01,-000.06,23.6,00.0,0617.3,30.9
2020-02-11T01:49:00Z,00000388,01000608,-000.91,-000.24,0000.32,0000.76,-000.07,0000.42,-000.02,0000.22,0000.08,23.6,00.0,0617.3,31.0
2020-02-11T01:50:00Z,00000388,01000608,0000.44,-000.48,0000.38,-000.19,0000.19,0000.20,0000.14,-000.03,-000.06,23.6,00.0,0617.3,31.0
2020-02-11T01:51:00Z,00000388,01000608,-000.23,-000.87,-000.04,0000.09,-000.29,0000.60,0000.24,0000.02,0000.15,23.6,00.0,0617.3,31.0
2020-02-11T01:52:00Z,00000388,01000608,-000.83,0000.00,-000.17,0000.34,-000.05,0000.12,0000.05,0000.20,0000.04,23.7,00.0,0617.3,31.0
2020-02-11T01:53:00Z,00000388,01000608,0000.23,-000.18,-000.16,0000.43,-000.04,0000.38,0000.62,0000.36,0000.50,23.6,00.0,0617.2,31.0
2020-02-11T01:54:00Z,00000388,01000608,0000.72,0000.17,0000.01,-000.29,0000.02,0000.39,0000.78,0000.98,0000.53,23.6,00.0,0617.3,31.0
2020-02-11T01:55:00Z,00000388,01000608,-001.16,-000.02,-000.05,-000.40,-000.19,-000.05,0000.69,0000.40,0000.31,23.6,00.0,0617.3,31.0
2020-02-11T01:56:00Z,00000388,01000608,0000.36,-000.66,-000.24,0000.95,-000.01,0000.10,0000.21,0000.30,0000.19,23.6,00.0,0617.3,31.0
2020-02-11T01:57:00Z,00000388,41000608,,,,,,,,,,23.7,00.0,0617.3,30.9
2020-02-11T01:58:00Z,00000388,61000608,,,,,,,,,,23.8,00.0,0616.3,30.9
2020-02-11T01:59:00Z,00000388,21000608,,,,,,,,,,23.9,00.0,0616.3,30.9
2020-02-11T02:00:00Z,00000388,21000608,,,,,,,,,,23.9,00.0,0616.4,30.9
2020-02-11T02:01:00Z,00000388,21000608,,,,,,,,,,23.9,00.0,0616.4,30.9
2020-02-11T02:02:00Z,00000388,21000608,,,,,,,,,,23.9,00.0,0616.4,30.9
2020-02-11T02:03:00Z,00000388,61000608,,,,,,,,,,23.9,00.0,0616.4,30.9
2020-02-11T02:04:00Z,00000388,41000608,-000.55,-000.03,-000.15,0000.12,0000.12,-000.05,-000.06,-000.17,-000.09,23.7,00.0,0617.3,30.9
2020-02-11T02:05:00Z,00000388,01000608,0000.69,0000.15,-000.05,0000.58,0000.39,-000.04,-000.03,0000.10,-000.00,23.7,00.0,0617.4,30.9
2020-02-11T02:06:00Z,00000388,01000608,-000.73,0000.17,0000.16,0000.23,0000.10,-000.15,0000.03,-000.10,0000.05,23.7,00.0,0617.4,30.9
2020-02-11T02:07:00Z,00000388,01000608,0000.45,0000.15,-000.08,0000.31,-000.05,-000.04,0000.22,-000.00,0000.05,23.6,00.0,0617.5,31.0
2020-02-11T02:08:00Z,00000388,01000608,-000.37,0000.02,-000.38,0000.16,0000.40,-000.06,0000.19,0000.26,0000.19,23.6,00.0,0617.5,30.9
2020-02-11T02:09:00Z,00000388,01000608,0000.26,-000.14,-000.01,0000.95,0000.27,0000.13,-000.23,-000.16,-000.14,23.6,00.0,0617.5,30.9
2020-02-11T02:10:00Z,00000388,01000608,-000.19,-000.31,0000.13,0000.51,-000.22,-000.08,-000.20,-000.06,-000.09,23.6,00.0,0617.5,30.9
2020-02-11T02:11:00Z,00000388,01000608,-000.31,-000.33,-000.42,0001.36,0000.09,0000.30,-000.00,-000.04,0000.19,23.6,00.0,0617.5,30.9
2020-02-11T02:12:00Z,00000388,01000608,-000.24,-000.01,-000.16,0000.43,0000.10,0000.14,0000.46,0000.18,0000.07,23.6,00.0,0617.5,30.9
2020-02-11T02:13:00Z,00000388,01000608,-000.33,-000.06,-000.31,0000.87,0000.37,0000.21,0000.31,0000.58,0000.26,23.6,00.0,0617.5,30.9
2020-02-11T02:14:00Z,00000388,01000608,-001.25,0000.61,0000.00,0000.50,-000.10,0000.01,0000.03,-000.05,0000.01,23.6,00.0,0617.5,30.9
2020-02-11T02:15:00Z,00000388,01000608,-000.68,0000.13,0000.06,0000.62,0000.19,-000.01,0000.69,0000.76,0000.52,23.6,00.0,0617.5,30.9
2020-02-11T02:16:00Z,00000388,01000608,0001.17,0000.38,0000.13,0000.78,0000.04,-000.09,0001.54,0001.32,0000.90,23.6,00.0,0617.5,30.9
2020-02-11T02:17:00Z,00000388,01000608,0000.44,-000.02,-000.10,0000.60,0000.02,-000.03,0000.15,-000.04,0000.13,23.6,00.0,0617.6,30.9
2020-02-11T02:18:00Z,00000388,01000608,0000.55,-000.42,-000.35,0000.66,-000.34,0000.00,0000.35,0000.38,0000.26,23.6,00.0,0617.6,30.9
2020-02-11T02:19:00Z,00000388,01000608,0001.30,0000.47,-000.33,0000.99,0000.07,0000.07,0003.15,0002.82,0002.03,23.6,00.0,0617.5,30.9
2020-02-11T02:20:00Z,00000388,01000608,-000.21,0000.17,-000.02,0001.06,-000.03,0000.48,0001.61,0001.45,0001.19,23.6,00.0,0617.5,30.9
2020-02-11T02:21:00Z,00000388,01000608,0000.42,-000.02,-000.17,0000.09,0000.13,0000.10,0000.31,0000.25,0000.15,23.6,00.0,0617.4,30.9
2020-02-11T02:22:00Z,00000388,01000608,0000.12,0000.04,-000.26,-000.04,-000.17,-000.38,0000.34,0000.45,0000.34,23.6,00.0,0617.4,30.9
2020-02-11T02:23:00Z,00000388,01000608,-000.82,0000.11,-000.09,-000.25,0000.04,-000.24,0000.23,0000.18,0000.11,23.6,00.0,0617.4,30.9
2020-02-11T02:24:00Z,00000388,01000608,0000.96,0000.30,-000.05,0000.11,0000.11,-000.18,0000.28,0000.09,0000.16,23.6,00.0,0617.4,30.9
2020-02-11T02:25:00Z,00000388,01000608,-000.51,0000.52,-000.32,0000.40,0000.10,0000.39,0000.68,0000.57,0000.39,23.5,00.0,0617.4,30.9
2020-02-11T02:26:00Z,00000388,01000608,0003.03,0002.19,0000.43,0001.30,0000.56,0000.08,0010.84,0009.75,0007.17,23.5,00.0,0617.4,30.9
2020-02-11T02:27:00Z,00000388,01000608,0000.76,0000.18,-000.54,0000.78,0000.47,-000.20,0004.45,0004.06,0003.11,23.5,00.0,0617.4,30.9
2020-02-11T02:28:00Z,00000388,01000608,0001.17,0000.30,-000.12,0000.42,0000.19,0000.21,0000.21,0000.25,0000.13,23.5,00.0,0617.5,30.9
2020-02-11T02:29:00Z,00000388,01000608,0001.14,0000.60,0000.18,0001.22,0000.28,0000.01,-000.07,-000.20,-000.13,23.5,00.0,0617.6,30.9
2020-02-11T02:30:00Z,00000388,01000608,0000.47,-000.08,-000.34,0000.49,-000.14,-000.35,-000.39,-000.20,-000.15,23.5,00.0,0617.6,30.9
2020-02-11T02:31:00Z,00000388,01000608,0000.01,-000.05,-000.06,0001.33,0000.04,0000.18,0000.01,-000.21,-000.10,23.5,00.0,0617.6,30.9
2020-02-11T02:32:00Z,00000388,01000608,0000.53,0000.17,-000.21,0000.06,0000.28,-000.61,-000.16,-000.03,0000.10,23.5,00.0,0617.6,30.9
2020-02-11T02:33:00Z,00000388,01000608,-000.24,-000.22,-000.34,-000.13,-000.16,-000.01,-000.04,-000.08,-000.20,23.5,00.0,0617.6,30.9
2020-02-11T02:34:00Z,00000388,01000608,0000.34,-000.06,0000.19,0000.37,0000.10,0000.30,0000.14,0000.16,0000.21,23.5,00.0,0617.6,30.9
2020-02-11T02:35:00Z,00000388,01000608,0000.62,0000.12,0000.36,0000.52,0000.49,0000.21,0000.06,-000.02,-000.09,23.5,00.0,0617.6,30.9
2020-02-11T02:36:00Z,00000388,01000608,0000.57,0000.13,-000.37,-000.16,0000.40,0000.32,0000.07,0000.15,0000.03,23.5,00.0,0617.6,30.9
2020-02-11T02:37:00Z,00000388,01000608,0000.28,0000.23,-000.54,-000.48,-000.17,0000.06,-000.28,-000.16,-000.13,23.5,00.0,0617.8,30.9
2020-02-11T02:38:00Z,00000388,01000608,0000.63,0000.64,0000.20,0000.60,0000.01,0000.05,-000.17,-000.12,0000.06,23.5,00.0,0617.7,30.9
2020-02-11T02:39:00Z,00000388,01000608,-000.78,0000.10,-000.32,0000.58,0000.35,0000.35,0000.46,0000.34,0000.28,23.5,00.0,0617.7,30.9
2020-02-11T02:40:00Z,00000388,01000608,-000.13,0000.23,-000.31,0001.06,0000.12,0000.02,0000.67,0000.43,0000.35,23.5,00.0,0617.6,30.9
2020-02-11T02:41:00Z,00000388,01000608,0001.11,0000.25,-000.65,0000.04,-000.17,0000.21,0000.07,0000.25,0000.11,23.5,00.0,0617.5,30.9
2020-02-11T02:42:00Z,00000388,01000608,-000.69,0000.29,-000.20,0000.01,0000.58,0000.03,0000.29,0000.29,0000.10,23.5,00.0,0617.5,30.9
2020-02-11T02:43:00Z,00000388,01000608,0000.08,-000.28,0000.14,0000.55,0000.42,-000.05,0000.09,-000.08,0000.19,23.5,00.0,0617.5,30.9
2020-02-11T02:44:00Z,00000388,01000608,-000.10,0000.42,-000.26,0000.17,-000.06,-000.01,-000.12,-000.11,-000.13,23.4,00.0,0617.4,30.9
2020-02-11T02:45:00Z,00000388,01000608,-000.33,-000.00,-000.09,0000.42,0000.04,-000.18,0000.36,0000.17,0000.13,23.4,00.0,0617.4,30.9
2020-02-11T02:46:00Z,00000388,01000608,-000.37,-000.18,-000.38,0001.06,-000.15,0000.30,0000.36,0000.38,0000.23,23.4,00.0,0617.4,30.9
2020-02-11T02:47:00Z,00000388,01000608,0004.73,0002.31,0001.19,0002.04,0001.12,0000.91,0021.10,0019.01,0013.82,23.4,00.0,0617.4,30.9
2020-02-11T02:48:00Z,00000388,01000608,0004.40,0002.52,0001.10,0000.52,0000.87,0000.52,0022.26,0019.87,0014.92,23.5,00.0,0617.4,30.9
2020-02-11T02:49:00Z,00000388,01000608,0001.33,0000.76,0000.21,0000.88,0000.35,0000.16,0011.40,0010.37,0007.53,23.4,00.0,0617.4,30.9
2020-02-11T02:50:00Z,00000388,01000608,0000.81,0000.65,-000.54,0000.58,-000.29,0000.23,0002.08,0001.75,0001.38,23.4,00.0,0617.4,30.9
2020-02-11T02:51:00Z,00000388,01000608,-000.83,0000.19,0000.19,-000.08,0000.15,-000.05,0000.54,0000.46,0000.39,23.4,00.0,0617.4,30.9
2020-02-11T02:52:00Z,00000388,01000608,0000.70,0000.37,-000.07,0001.44,0000.05,0000.33,0000.45,0000.42,0000.24,23.5,00.0,0617.4,30.9
2020-02-11T02:53:00Z,00000388,01000608,0000.37,-000.14,-000.04,-000.12,-000.20,0000.47,0000.19,0000.16,0000.08,23.5,00.0,0617.4,30.9
2020-02-11T02:54:00Z,00000388,01000608,0000.08,0000.02,0000.05,0000.10,0000.21,0000.08,0000.88,0000.85,0000.73,23.5,00.0,0617.4,30.9
2020-02-11T02:55:00Z,00000388,01000608,-000.06,-000.08,0000.14,0001.04,0000.36,0000.32,0001.16,0000.93,0000.68,23.5,00.0,0617.4,30.9
2020-02-11T02:56:00Z,00000388,01000608,0000.06,0000.88,-000.22,0000.99,0000.21,-000.05,0001.74,0001.63,0001.32,23.4,00.0,0617.4,30.9
2020-02-11T02:57:00Z,00000388,41000608,,,,,,,,,,23.5,00.0,0617.3,30.9
2020-02-11T02:58:00Z,00000388,61000608,,,,,,,,,,23.6,00.0,0616.4,30.9
2020-02-11T02:59:00Z,00000388,21000608,,,,,,,,,,23.7,00.0,0616.4,30.9
2020-02-11T03:00:00Z,00000388,21000608,,,,,,,,,,23.7,00.0,0616.4,30.9
2020-02-11T03:01:00Z,00000388,21000608,,,,,,,,,,23.7,00.0,0616.4,30.9
2020-02-11T03:02:00Z,00000388,21000608,,,,,,,,,,23.7,00.0,0616.4,30.9
2020-02-11T03:03:00Z,00000388,61000608,,,,,,,,,,23.7,00.0,0616.4,30.9
2020-02-11T03:04:00Z,00000388,41000608,0001.36,0000.82,0000.35,0000.23,0000.36,0000.25,0006.68,0006.02,0004.57,23.5,00.0,0617.3,30.9
2020-02-11T03:05:00Z,00000388,01000608,0000.43,0000.90,-000.01,0000.69,0000.10,-000.00,0003.23,0002.96,0002.07,23.5,00.0,0617.4,30.9
2020-02-11T03:06:00Z,00000388,01000608,0000.39,0000.31,-000.28,0000.07,0000.25,-000.12,0000.43,0000.24,0000.15,23.5,00.0,0617.4,30.9
2020-02-11T03:07:00Z,00000388,01000608,0000.58,0000.37,0000.07,0000.20,-000.18,-000.02,0000.17,0000.37,0000.29,23.5,00.0,0617.3,30.9
2020-02-11T03:08:00Z,00000388,01000608,-000.15,0000.08,-000.06,0000.08,0000.28,-000.13,0000.25,-000.08,0000.03,23.5,00.0,0617.3,30.9
2020-02-11T03:09:00Z,00000388,01000608,0000.32,0000.39,0000.34,-000.57,-000.22,0000.11,-000.15,0000.20,0000.05,23.4,00.0,0617.3,30.9
2020-02-11T03:10:00Z,00000388,01000608,0000.39,0000.80,-000.38,0000.69,0000.23,-000.17,0000.17,-000.05,0000.11,23.4,00.0,0617.3,30.9